Location: Gerlach
(40.6516°N, 119.3568°W)
Time: 08:20:24
(UTC-07:00)

SR - Pass Details

Date: 14 February 2023
Orbit: 583 x 866 km, 66.7° (Epoch: 26 March)

Event Time Altitude Azimuth Distance (km) Brightness Sun altitude
Rises 19:22:45 0° 343° (NNW) 2,832 ? -21.7°
Reaches altitude 10° 19:25:32 10° 1° (N) 1,911 ? -22.3°
Enters shadow 19:26:22 13° 10° (N) 1,691 ? -22.4°
